STARLINK-35773, 67042

Orbit data source: Space-Track

STARLINK-35773, 67042 is a payload satellite owned by SpaceX/Seattle (US) in LEO that was launched on Thu, 11 Dec 2025 UTC via an FALCON 9 launch vehicle from the Air Force Eastern Test Range (AFETR). Payload-class satellites include a variety of spacecraft equipped with specific instruments for various scientific and technological missions. These include communications satellites like Starlink; space stations such as the ISS; scientific satellites like the Hubble; Earth observation satellites from companies like Planet Labs, Umbra, and HawkEye 360; GPS; miniature CubeSats for education and research; and military/defense satellites.

Loading next visibility...
Identifier
67042, 2025-294N
Orbit
LEO
Country
Flag of USUS
Related business
Manufacturer
SpaceX/Seattle
Mission
Operational Commercial Communications
Bus & Motor
STARLINK V2MO, Unknown motor
Mass
575 kg wet, ~530 kg dry
Launch date (UTC)
2025-12-11 (6 months ago)
Launch vehicle
FALCON 9
Launch site
Air Force Eastern Test Range (AFETR)
Object type
Payload
Rocket body
Debris
Shape & HBR
Box + 2 Pan, 17.7 m
Radar Cross Section
36.964 m², Large (>1 m²)

Expand to show TLE details & history
Last TLE update: 19 hours ago

TLE from 19 hours ago
0 STARLINK-35773
1 67042U 25294N   26171.05004073  .00011008  00000-0  40884-3 0  9994
2 67042  42.9997 180.0204 0002287 282.5591  77.5005 15.27587414 30457
Epoch: 2026-06-20T01:12Z
TLE epoch observation values (Epoch: 2026-06-20T01:12:03.519Z)
Latitude
0.00002°
Longitude
-106.26448°
Altitude
482.463 km
Speed
7.626 km/s
True Right ascension
12h 00m 04s
True Declination
0° 00' 00"
Sunlit
Object was in daylight at epoch
Visualization orbit readout
Latitude
Unknown
Longitude
Unknown
Altitude
Unknown
Speed
Unknown
Apparent Right ascension
Unknown
Apparent Declination
Unknown
Sunlit
N/A
Visualization observer readout
Local Sidereal Time
07:17:13
Azimuth
Unknown
Elevation
Unknown
Doppler factor
Unknown
Orbital elements
Apogee altitude
486.542 km
Perigee altitude
483.403 km
Semi-major axis
6,863.109 km
Eccentricity
0.00023
Inclination
42.9997°
RAAN
180.0204°
Arg. of periapsis
282.5591°
True anomaly
77.52609°
Mean anomaly
77.5005°
Eccentric anomaly
77.51329°
Mean motion
3.81735 °/min
Orbital period
94.31 mins
BSTAR
0.00040884
Loading maneuver chart data...
Computing Atmospheric mass density...
Loading historical data...
Loading historical data...
Loading historical data...
Loading historical data...
Loading historical data...
Loading historical data...
Loading historical data...

Documentation

Showing up to 5 results
|